Regional Weather Roundup
Issued by NWS

Home | Current Version | Previous Version | Text Only | Print | Product List | Glossary On
Versions: 1 2 3 4 5 6 7 8 9 10 11 12 13 14 15 16 17 18 19 20 21 22 23 24 25 26 27 28 29 30 31 32 33 34 35 36 37 38 39 40 41 42 43 44 45 46 47 48 49 50
000
ASUS43 KMKX 272011
RWRWI

WISCONSIN REGIONAL WEATHER ROUNDUP
NATIONAL WEATHER SERVICE MILWAUKEE/SULLIVAN WI
300 PM CDT WED MAY 27 2015

NOTE: "FAIR" INDICATES FEW OR NO CLOUDS BELOW 12,000 FEET WITH NO
SIGNIFICANT WEATHER AND/OR OBSTRUCTIONS TO VISIBILITY.

WIZ001-002-006>008-014>016-023>028-272100-
NORTHWEST WISCONSIN

CITY           SKY/WX    TMP DP  RH WIND       PRES   REMARKS
SUPERIOR ARPT  MOSUNNY   84  54  35 W13G20    29.87R HX  82
ASHLAND        MOSUNNY   83  52  34 VRB5      29.87S HX  82
HAYWARD        SUNNY     78  54  43 SW6G17    29.93R
SIREN          SUNNY     80  56  43 W10G21    29.94R HX  80
CUMBERLAND     SUNNY     75  55  50 SW16      29.96R
RICE LAKE      SUNNY     78  57  49 SW8       29.97R
CHETEK         SUNNY     77  61  56 SW10      29.95S
LADYSMITH      SUNNY     76  58  53 SW13      29.97R
EAU CLAIRE     SUNNY     79  59  50 W12       29.96R HX  80
MENOMONIE      SUNNY     78  59  50 SW9       29.97R
NEW RICHMOND   SUNNY     78  56  46 SW12      29.97R
OSCEOLA        SUNNY     80  58  46 W10G17    29.98R HX  80
$$

WIZ003>005-009-010-017-018-272100-
NORTH CENTRAL WISCONSIN

CITY           SKY/WX    TMP DP  RH WIND       PRES   REMARKS
MANITOWISH WTR MOSUNNY   75  57  53 W10G18    29.92R
ARBOR VITAE    MOSUNNY   77  59  53 SW14      29.93R
WOODRUFF       MOSUNNY   77  59  53 SW14      29.93R
RHINELANDER    MOSUNNY   75  58  55 W13       29.94R
EAGLE RIVER    MOSUNNY   75  51  43 W16       29.92R
LAND O LAKES   MOSUNNY   76  54  44 NW9       29.91R
PHILLIPS       SUNNY     75  58  55 SW8       29.94R
TOMAHAWK       MOSUNNY   74  56  53 W9        29.95S
MEDFORD        MOSUNNY   72  60  66 SW13      29.97S
MERRILL        MOSUNNY   73  61  64 SW14      29.96R
$$

WIZ029-030-035-036-043>047-272100-
CENTRAL WISCONSIN

CITY           SKY/WX    TMP DP  RH WIND       PRES   REMARKS
WAUSAU         PTSUNNY   72  59  63 W9        29.95S
MOSINEE        PTSUNNY   72  61  68 SW10G16   29.98S
MARSHFIELD     MOSUNNY   75  57  53 W12G22    29.97S
STEVENS POINT  MOSUNNY   71  56  58 W10       29.98S
WAUPACA        MOSUNNY   76  59  55 W16       29.97S
WAUTOMA        SUNNY     76  57  51 W15G21    29.98S
WISC RAPIDS    MOSUNNY   77  55  46 W10G18    29.98S
CAMP DOUGLAS   MOSUNNY   77  61  57 SW12G17   29.99S
$$

WIZ011>013-019>022-031-037>040-048>050-272100-
NORTHEAST WISCONSIN

CITY           SKY/WX    TMP DP  RH WIND       PRES   REMARKS
ANTIGO         PTSUNNY   70  61  73 W14G20    29.96R
SHAWANO        MOSUNNY   74  59  59 W14G22    29.94S
OCONTO         MOSUNNY   72  59  64 W17G23    29.92R
STURGEON BAY   MOSUNNY   66  57  72 W13G21    29.96R
GREEN BAY      MOSUNNY   73  61  65 W15       29.95R
MANITOWOC      PTSUNNY   69  58  67 W10       29.96S
APPLETON       PTSUNNY   70  55  60 SW10G16   29.97S
CLINTONVILLE   MOSUNNY   73  57  56 W16       29.95R
OSHKOSH        MOSUNNY   71  57  61 W7        29.97S
$$

WIZ032>034-041-042-053>061-272100-
SOUTHWEST WISCONSIN

CITY           SKY/WX    TMP DP  RH WIND       PRES   REMARKS
LA CROSSE      MOSUNNY   82  59  45 W9        29.98S HX  82
SPARTA         MOSUNNY   76  55  48 W12       30.00S
VIROQUA        PTSUNNY   74  59  59 SW10      30.03R
BOSCOBEL       MOSUNNY   78  58  49 SW6       30.01F
PRAIRIE DU CHI MOSUNNY   77  57  49 W8        30.01F
PLATTEVILLE    PTSUNNY   74  57  54 NW7       30.03S
$$

WIZ056-057-062-063-064-067-068-272100-
SOUTH CENTRAL WISCONSIN

CITY           SKY/WX    TMP DP  RH WIND       PRES   REMARKS
REEDSBURG      MOSUNNY   74  58  56 W9        30.00S
BARABOO/DELLS  MOSUNNY   73  55  52 W7        30.00F
LONE ROCK      MOSUNNY   76  56  49 W8G16     30.01F
MINERAL POINT  MOSUNNY   73  54  49 CALM      30.04S
MADISON        MOSUNNY   74  54  49 NW6       30.01S
MIDDLETON      MOSUNNY   75  52  45 W6        30.02S
WATERTOWN      CLOUDY   N/A N/A N/A W5        30.01R
MONROE         SUNNY     72  55  56 NW3       30.03R
JANESVILLE     MOSUNNY   73  55  53 N12G17    30.01R
$$

WIZ051-052-058>065-066-070>072-272100-
SOUTHEAST WISCONSIN

CITY           SKY/WX    TMP DP  RH WIND       PRES   REMARKS
MILWAUKEE      MOSUNNY   72  54  53 N14G21    29.99R
WAUKESHA       MOSUNNY   68  55  64 NW13      30.01R
MILWAUKEE/TIMM MOSUNNY   70  54  56 N14G21    29.99R
RACINE         CLOUDY    68  57  68 NW8       30.00R
BURLINGTON     MOSUNNY   68  56  63 N13G21    30.01R
KENOSHA        CLOUDY    66  59  78 W9        30.00R
FOND DU LAC    MOSUNNY   70  56  61 W8        29.98S
SHEBOYGAN      MOSUNNY   69  56  62 VRB6      29.97R
WEST BEND      PTSUNNY   70  52  52 NW7       29.99S
JUNEAU         MOSUNNY   67  55  64 W6        30.02R
$$

LSZ147-162-272100-
LAKE SUPERIOR

STATION/POSITION TIME  TEMP    WIND        PRES    WAVE
                       AIR SEA DIR/SP/G            HT/PER
                 (UTC) (F)     (DEG/KT/KT) (MB)    (FT/S)
W MID LAKE BUOY  1950   45 37  230/ 12/ 12   N/A     1/ 4
DEVILS ISLAND    2000   63     240/ 17/ 20   N/A
PORT WING        1940   77     260/ 11/ 15   N/A
SAXON HARBOR     1900   78     300/  2/  9   N/A
$$

LMZ867-665-643>646-272100-
LAKE MICHIGAN

STATION/POSITION TIME  TEMP    WIND        PRES    WAVE
                       AIR SEA DIR/SP/G            HT/PER
                 (UTC) (F)     (DEG/KT/KT) (MB)    (FT/S)
CHAMBERS ISLAND  1900   64     180/  7/ 18   N/A
N MID LAKE BUOY  1950   42 37  210/  8/ 10   N/A     2/ 5
NORTHPORT PIER   1900   66     230/  5/ 10   N/A
SISTER BAY       1918   69     220/ 10/ 12   N/A
ALGOMA LAKESHORE 1908          250/  8/  9   N/A
KEWAUNEE LAKESHO 1900   65     240/  7/ 11   N/A
SHEBOYGAN LAKESH 2000   65      10/  6/  6   N/A
PORT WASHINGTON  1900   70     310/  8/ 15   N/A
ATWATER BUOY     1900   58 47  340/ 10/ 14   N/A
MILWAUKEE LAKESH 1900   68     320/ 11/ 16   N/A
S MID LAKE BUOY  1950   45 38  200/  8/ 10   N/A     1
KENOSHA   LAKESH 2000   67     290/ 12/ 14   N/A
$$

TC  - TEMPERATURE IN CELSIUS
VSB - VISIBILITY IN STATUTE MILES
WCI - WIND CHILL INDEX
HX  - HEAT INDEX




USA.gov is the U.S. government's official web portal to all federal, state and local government web resources and services.